Location: Newark
(25.6108°S, 54.5803°W)
Time: 17:12:29
(UTC+00:00)

Courier 1B Rocket - Pass Details

Date: 01 November 2020
Orbit: 920 x 1202 km, 28.2° (Epoch: 22 November)

Event Time Altitude Azimuth Distance (km) Brightness Sun altitude
Rises 11:07:33 0° 262° (W) 3,926 7.6 29.8°
Reaches altitude 10° 11:10:25 10° 260° (W) 2,926 7.1 30.5°
Maximum altitude 11:17:34 74° 174° (S) 1,064 5.8 32.1°
Drops below altitude 10° 11:24:10 10° 89° (E) 2,719 8.8 33.6°
Sets 11:26:45 0° 87° (E) 3,633 9.0 34.2°
